Torna al catalogo

FREGAT DEB

LostUNKNOWN
NORAD 45869·DEBRIS·🇷🇺 Russia

Lanciato Jul 18, 2011 da Baikonur Cosmodrome

Loading…

Prossimi Passaggi (prossime 24 ore)

TLE

ObsoletoSource: Space-Track

Epoca: Sep 7, 2021, 01:07 UTC

1 45869U 11037CT  21250.04653237  .00196566  00000-0  11497+0 0  9998
2 45869  51.4639 264.4697 2433004 294.6683  42.0560  9.98917812 45228

Traccia FREGAT DEB in tempo reale con AllMySat

Download on the App Store